Погода в Дроновке

Россия / Курская область     51°25′24″N   34°18′20″E
темп.,
°C
ветер,
м/с
пор.,
м/с
влажн.,
%
обл.,
%
осадки,
мм/ч
давл.,
гПа
погр.,
м
7 мая, пт
пт700:00+7зсз2289100 0.4 101235
03:00+6зсз2288100 0.5 101319
06:00+5зсз11835 0.0 101310
09:00+11ю22614 0.0 1014353
12:00+14ююз4448100 0.0 10141606
15:00+15ююз5745100 0.0 10132133
18:00+13ююв486299 0.0 1011497
21:00+11ююв51369100 0.0 1010361
8 мая, сб
сб800:00+11ю71566100 0.2 1009963
03:00+10ю91787100 5.0 1006849
06:00+10ю61398100 3.0 1005597
09:00+10ююз61297100 6.4 1004678
12:00+10зсз5891100 2.5 1005610
15:00+11зюз81089100 2.8 1007821
18:00+7зюз7128898 0.1 10091132
21:00+5зсз71293100 0.2 1011844
9 мая, вс
вс900:00+6зсз8137999 0.1 10121010
03:00+3зсз613865 0.1 1015606
06:00+2зсз615890 0.0 1017569
09:00+7сз711685 0.0 10191042
12:00+10сз9115428 0.0 10201902
15:00+11ссз8104799 0.0 10212443
18:00+11сз69575 0.0 10231543
21:00+6сз48720 0.0 1025134
10 мая, пн
пн1000:00+4сз48783 0.0 1026134
03:00+3ссз488128 0.0 1027140
06:00+3с38825 0.0 1029156
09:00+10с58605 0.0 1028498
12:00+13ссв79480 0.0 10271597
15:00+14ссв810485 0.0 10261714
18:00+13ссв711610 0.0 10261296
21:00+9ссв5147167 0.0 1026406
11 мая, вт
вт1100:00+7ссв513775 0.0 1026338
03:00+7ссв5137650 0.0 1025299
06:00+7ссв614833 0.0 1025315
09:00+13св712750 0.0 1023451
12:00+17св8117010 0.0 1023931
15:00+18всв7117196 0.1 10221392
18:00+15в712821 0.9 10231027
21:00+9вюв35880 0.9 102581